Location: Mount Carleton Provincial Park
(47.4176°N, 66.8949°W)
Time: 10:08:41
(UTC-03:00)

ISS - Visible Passes

Search period start: 20 May 2019 00:00
Search period end: 30 May 2019 00:00
Orbit: 407 x 410 km, 51.6° (Epoch: 20 May)

Date Brightness Start Highest point End Pass type
(mag) Time Alt. Az. Time Alt. Az. Time Alt. Az.
20 May -2.3 00:52:37 10° WNW 00:55:45 37° N 00:58:52 10° ENE visible
20 May -3.4 02:29:22 10° WNW 02:32:40 63° NNE 02:35:58 10° ESE visible
20 May -3.0 04:06:10 10° W 04:09:05 29° SW 04:12:00 10° SSE visible
20 May -3.9 22:24:38 10° WSW 22:27:56 84° SSE 22:31:14 10° ENE visible
21 May -2.4 00:01:35 10° WNW 00:04:43 39° N 00:07:52 10° ENE visible
21 May -2.9 01:38:28 10° WNW 01:41:42 48° NNE 01:42:20 41° NE visible
21 May -2.7 23:10:30 10° W 23:13:42 45° NNW 23:16:54 10° ENE visible
22 May -2.5 00:47:31 10° WNW 00:50:41 41° N 00:52:16 23° ENE visible
22 May -1.5 02:24:08 10° WNW 02:24:58 17° WNW 02:24:58 17° WNW visible
22 May -3.1 22:19:26 10° W 22:22:42 58° NNW 22:25:59 10° ENE visible
22 May -2.3 23:56:31 10° WNW 23:59:38 38° N 00:02:39 11° ENE visible
23 May -2.6 01:33:11 10° WNW 01:35:21 37° NW 01:35:21 37° NW visible
23 May -2.3 23:05:27 10° WNW 23:08:34 38° N 23:11:43 10° ENE visible
24 May -3.2 00:42:16 10° WNW 00:45:31 54° NNE 00:45:51 51° NE visible
24 May -2.5 22:14:21 10° W 22:17:30 42° N 22:20:41 10° ENE visible
24 May -2.7 23:51:18 10° WNW 23:54:30 44° NNE 23:56:25 20° ENE visible
25 May -1.8 01:27:55 10° WNW 01:29:08 21° WNW 01:29:08 21° WNW visible
25 May -2.4 23:00:17 10° WNW 23:03:25 39° N 23:06:33 10° ENE visible
26 May -3.5 00:36:55 10° WNW 00:39:44 62° WNW 00:39:44 62° WNW visible
26 May -2.3 22:09:12 10° WNW 22:12:19 37° N 22:15:27 10° ENE visible
26 May -3.5 23:45:57 10° WNW 23:49:14 63° NNE 23:50:22 36° E visible
27 May -1.1 01:22:44 10° W 01:23:05 12° W 01:23:05 12° W visible
27 May -2.9 22:54:58 10° WNW 22:58:11 48° NNE 23:01:01 13° E visible
28 May -2.6 00:31:35 10° WNW 00:33:43 32° W 00:33:43 32° W visible
28 May -2.6 22:03:56 10° WNW 22:07:05 41° N 22:10:15 10° E visible
28 May -3.9 23:40:32 10° WNW 23:43:50 74° SSW 23:44:24 56° SE visible
29 May -3.7 22:49:31 10° WNW 22:52:49 75° NNE 22:55:05 19° ESE visible
